User: anonymous   Login
Location: ???????
(54.9996°N, 37.9529°E)
Time: 19:07:06
(UTC+00:00)
Language:

CZ-2C R/B - Orbit

View from above orbital plane
View from above orbital plane
View from above satellite
View from above satellite

Ground track
Ground track

The orbit data is extracted from the following two-line orbital elements,

1 28480U 04046B   24166.56352561  .00000203  00000-0  91959-4 0  9990
2 28480  98.1623 110.9621 0139638 226.7753 132.1702 14.26383241 18228
Epoch (UTC): 14 June 2024 13:31:28
Eccentricity: 0.0139638
inclination: 98.1623°
perigee height: 703 km
apogee height: 904 km
right ascension of ascending node: 110.9621°
argument of perigee: 226.7753°
revolutions per day: 14.26383241
mean anomaly at epoch: 132.1702°
orbit number at epoch: 1822

The dashed part of the orbit path shows where the satellite is in the earth's shadow,  

DLR